Temperature
21 20 20 19 19 19 20 21 22 22 21 22 22 21 20 20 20 19 19 19 19 19 19 19 19 19 19 19 19 19 19 19 19 19 19 18 18 18 18 18 18 18 18 18 18 18 18 18 18
21 20 20 19 19 19 20 22 22 22 22 22 22 21 20 19 19 20 19 19 19 19 19 19 19 19 19 19 19 19 19 19 19 18 19 19 18 18 19 18 18 18 18 18 18 18 18 18 18
21 20 20 19 20 20 21 22 22 22 22 22 21 20 20 19 19 20 20 19 19 19 19 19 19 19 19 19 19 19 19 19 19 18 19 19 18 18 18 18 18 18 18 18 18 18 18 18 18
21 21 20 20 21 21 22 22 22 22 22 22 21 20 20 19 20 20 20 19 19 19 19 19 19 19 19 19 19 19 19 18 18 19 18 18 18 18 18 18 18 18 18 18 18 18 18 18 18
21 21 20 20 22 22 22 23 23 22 22 21 20 19 19 19 20 20 20 19 19 19 19 19 19 19 19 19 19 19 18 18 18 18 18 18 18 18 18 18 18 18 18 18 18 18 18 18 18
22 20 20 20 22 23 23 23 22 21 21 21 20 19 19 19 20 20 19 19 19 19 19 19 19 19 19 18 19 18 18 18 18 18 18 18 18 18 18 18 18 18 18 18 18 18 18 18 18
21 19 21 21 22 23 23 23 22 21 21 21 21 19 19 19 19 19 19 19 19 19 19 19 19 19 19 19 19 18 18 18 18 18 18 18 18 18 18 18 18 18 18 18 18 18 18 18 18
22 20 21 21 22 23 24 23 23 22 21 21 21 19 19 19 19 19 19 19 19 19 19 19 19 19 19 19 18 18 18 18 18 18 18 18 18 18 18 18 18 18 18 18 18 18 18 18 18
22 20 21 22 22 23 24 23 23 22 22 21 21 21 20 20 19 19 19 19 19 19 19 19 19 19 19 18 18 18 18 18 18 18 18 18 18 18 18 18 18 18 18 18 18 18 18 18 18
22 20 22 23 23 23 23 23 23 22 21 21 20 20 20 20 19 19 19 19 19 19 19 19 19 19 19 18 18 18 18 18 18 18 18 18 18 18 18 18 18 18 18 18 18 18 18 18 18
22 22 23 24 24 24 23 23 23 22 21 21 21 20 20 19 19 19 19 19 19 19 19 19 19 19 19 19 18 18 18 18 18 18 18 18 18 18 18 18 18 18 18 18 18 18 18 18 18
23 23 24 24 25 24 24 23 23 22 22 22 22 21 20 20 19 19 19 19 19 19 19 19 19 19 19 19 18 18 18 18 18 18 18 18 18 18 18 18 18 18 18 18 18 18 18 18 18
24 24 25 25 25 25 24 23 23 22 23 22 21 21 20 20 20 20 19 19 19 19 19 19 19 19 19 18 18 18 18 18 18 18 18 18 18 18 18 18 18 18 18 18 18 18 18 18 17
24 24 25 25 25 25 23 23 23 22 22 22 21 20 20 20 20 20 20 19 19 19 19 19 19 19 19 18 18 18 18 18 18 18 18 18 18 18 18 18 18 18 18 18 18 18 18 17 17
25 24 24 24 25 24 24 23 22 22 22 21 21 20 20 20 20 20 20 20 19 19 19 19 19 19 19 19 18 18 18 18 18 18 18 18 18 18 18 18 18 18 18 18 18 17 17 17 17
24 23 23 24 24 24 24 23 23 22 22 21 21 20 20 20 20 20 20 20 20 19 19 19 19 19 19 19 18 18 18 18 18 18 18 18 18 18 18 18 18 18 18 18 18 18 17 17 17
23 23 24 24 24 24 23 23 22 22 22 21 21 20 20 20 20 20 20 20 20 20 19 19 19 19 19 19 19 18 18 18 18 18 18 18 18 18 18 18 18 18 18 18 17 17 17 17 17
24 24 24 24 24 24 23 22 22 22 22 21 21 21 21 20 21 21 20 20 20 20 20 19 19 19 19 19 19 19 18 18 18 18 18 18 18 18 18 18 18 18 18 17 17 17 17 17 17
24 24 24 24 25 24 23 23 22 22 22 21 21 21 21 21 21 21 21 20 20 20 20 20 19 19 19 19 19 19 19 19 18 18 18 18 18 18 18 18 18 18 17 17 17 17 17 17 17
25 24 24 24 25 24 23 23 22 22 22 22 21 21 21 21 21 21 21 21 21 20 20 20 20 19 19 19 19 19 19 19 18 18 18 18 18 18 18 18 18 17 17 17 17 17 17 17 17
25 24 24 24 24 24 24 23 23 22 22 22 22 22 22 22 22 22 21 21 21 21 20 20 20 20 19 19 19 19 19 19 19 18 18 18 18 18 18 18 17 17 17 17 17 17 17 17 17
24 25 25 25 23 22 23 22 22 22 21 21 22 22 22 22 23 22 22 22 21 21 21 20 20 20 20 19 19 19 19 19 19 18 18 18 18 18 18 17 17 17 17 17 17 17 17 17 17
25 25 25 24 22 22 22 22 21 21 21 21 22 22 23 23 23 23 23 22 22 21 21 21 20 20 20 19 19 19 19 19 19 18 18 18 18 18 18 17 17 17 17 17 17 17 17 17 17
25 24 22 20 20 22 22 22 22 20 21 22 22 23 23 23 23 23 23 22 22 22 21 21 21 20 20 20 19 19 19 19 19 18 18 18 18 18 18 17 17 17 17 17 17 17 17 17 17
24 22 21 22 20 21 21 21 21 22 22 22 22 23 23 23 23 23 23 23 22 22 22 21 21 21 20 20 20 19 19 19 19 18 18 18 18 18 18 18 18 17 17 17 17 17 17 17 17
23 22 22 22 22 21 21 21 22 23 23 24 24 24 24 24 24 24 24 23 23 23 22 21 21 21 20 20 20 19 19 19 19 18 18 18 18 18 18 18 17 17 17 17 17 17 17 17 17
23 22 21 20 21 21 21 21 22 23 22 22 22 23 23 24 24 24 24 23 23 23 22 22 21 21 21 20 20 19 19 19 19 19 18 18 18 18 18 18 17 17 17 17 17 17 17 17 17
23 20 19 19 21 22 22 22 22 23 22 22 21 22 23 23 24 24 24 24 23 23 22 22 21 21 21 20 20 19 19 19 19 18 18 18 18 18 18 18 18 17 17 17 17 17 17 17 17
22 21 19 18 19 20 21 22 23 22 22 21 21 22 23 24 24 24 24 24 23 23 22 22 21 21 21 20 20 20 19 19 19 18 18 18 18 18 18 18 17 17 17 17 17 17 17 17 16
23 22 19 21 20 18 20 21 23 22 21 21 21 23 23 24 24 24 24 23 23 23 22 22 21 21 21 20 20 20 19 19 19 18 18 18 18 18 17 17 17 17 17 17 17 17 17 17 17
Wind_Speed
8 5 2 0 3 5 3 3 1 2 3 3 5 6 6 4 2 2 1 2 1 1 2 5 6 6 7 8 9 9 9 10 10 10 11 11 11 11 11 11 11 11 11 11 11 12 11 12 12
5 4 1 2 4 4 3 3 2 2 3 3 5 6 6 4 3 4 1 1 2 2 2 5 6 6 7 8 8 8 8 9 9 9 9 10 10 11 10 10 10 10 10 10 10 10 10 11 11
5 2 1 3 3 2 1 0 4 4 3 3 4 5 4 3 2 2 1 3 3 2 3 4 6 6 6 7 7 8 8 8 8 8 8 9 9 9 9 9 9 9 9 9 10 10 10 10 11
2 1 2 4 3 0 3 3 4 4 4 5 4 5 4 3 2 3 5 5 4 1 2 3 5 5 5 6 6 7 7 7 7 7 7 7 8 8 8 8 8 8 8 8 9 9 9 9 10
2 3 5 4 3 2 1 3 3 4 3 4 4 4 3 4 5 6 6 4 4 2 1 2 4 4 4 5 6 6 6 6 6 6 6 6 6 6 7 8 8 8 8 8 8 9 9 9 9
3 4 4 2 2 2 2 3 4 4 4 4 4 4 2 2 5 4 4 3 3 2 1 1 2 3 3 4 5 5 5 5 5 5 5 5 5 5 6 6 7 7 7 7 8 8 8 8 9
3 4 2 1 1 1 2 3 4 4 4 3 4 4 2 1 2 4 3 3 2 2 2 1 0 1 2 3 4 4 5 5 5 5 5 4 4 4 5 5 5 6 6 6 7 7 8 9 9
3 3 2 0 2 0 2 3 3 5 4 4 4 5 3 3 3 4 4 3 3 2 1 1 1 0 0 2 3 4 4 4 4 4 4 3 3 3 3 3 4 4 5 6 6 6 8 8 8
3 4 1 3 4 2 3 3 2 3 6 3 3 4 4 7 6 6 4 2 1 1 1 1 1 1 0 1 1 3 4 3 3 3 3 2 1 1 2 3 3 4 5 6 6 6 7 7 7
3 2 4 4 5 4 4 4 5 4 4 3 5 6 8 8 7 5 4 2 1 1 1 1 1 1 1 1 2 2 2 2 2 2 2 1 1 1 1 1 2 3 4 5 5 6 6 5 5
4 4 2 0 3 5 5 3 3 7 2 4 7 9 9 7 6 5 3 3 2 2 1 1 0 0 1 1 2 2 2 2 2 2 1 1 1 1 1 1 1 1 2 2 3 3 3 4 4
2 3 2 2 4 5 5 4 4 3 3 5 9 12 9 7 6 5 4 3 1 1 1 0 0 1 1 1 2 2 2 2 1 1 1 2 1 1 1 1 1 2 2 2 2 2 3 4 4
1 1 1 3 5 5 6 4 4 2 5 9 10 10 9 7 5 4 3 2 1 1 1 0 1 1 1 2 1 2 2 1 1 0 1 2 2 1 1 2 2 2 2 2 2 2 3 4 4
1 2 3 3 5 4 6 3 4 3 7 10 9 8 7 6 5 4 3 2 2 2 1 1 1 1 2 2 2 1 1 1 1 1 1 2 2 2 2 2 2 2 2 2 2 3 3 3 3
2 4 5 3 4 3 6 2 1 5 9 8 8 7 6 5 5 5 5 4 3 2 2 1 2 2 3 2 2 2 1 2 1 1 1 2 2 2 2 2 1 1 2 3 3 3 3 3 2
4 5 3 2 2 3 5 3 3 7 9 8 7 6 5 5 5 5 4 3 3 2 2 1 2 3 2 2 2 2 2 2 1 1 1 1 2 3 3 2 1 2 2 3 3 2 3 2 2
5 2 1 2 2 3 3 3 3 7 9 8 7 6 5 4 4 4 4 4 3 3 3 2 2 3 2 2 2 2 2 1 1 1 1 1 2 3 3 2 2 2 2 2 2 2 2 2 1
2 0 1 3 2 4 3 3 4 8 8 8 7 6 6 6 7 6 5 4 3 3 3 2 2 3 3 2 2 2 1 1 0 1 1 2 2 3 4 2 2 3 2 2 2 2 2 2 1
3 2 2 3 1 3 3 3 5 7 7 7 7 7 7 7 6 4 4 4 3 3 3 2 2 2 3 2 1 1 0 0 1 0 1 2 2 3 3 2 2 2 2 2 2 2 2 1 1
3 2 2 2 2 3 1 2 3 7 9 9 9 9 8 6 4 4 4 4 5 4 3 3 3 3 3 2 1 1 1 1 1 1 1 1 2 3 3 3 3 3 2 2 2 2 2 1 1
2 5 4 2 2 3 3 4 2 3 4 5 6 7 7 9 8 7 7 6 5 5 5 4 4 4 3 3 2 2 2 2 2 2 1 1 1 2 3 3 3 3 3 2 2 2 2 1 1
4 5 5 3 4 2 2 3 6 3 4 7 8 8 8 8 8 7 7 7 7 7 5 4 4 3 3 3 3 3 2 1 1 0 1 1 0 1 2 3 3 2 2 2 3 3 2 2 2
4 2 4 3 4 2 2 1 7 1 5 9 10 10 10 9 9 9 9 9 8 7 6 5 4 3 3 4 4 4 2 2 0 1 1 2 1 1 1 2 3 3 3 3 3 2 3 2 2
5 7 7 6 5 1 3 3 7 5 7 6 8 10 10 9 8 8 7 6 5 5 5 5 5 4 4 4 4 4 4 3 2 1 0 1 1 1 1 1 2 3 3 3 3 3 3 3 3
6 6 4 5 4 5 3 3 8 8 7 8 8 9 9 8 8 8 8 8 7 7 7 6 6 5 4 5 5 5 5 4 3 2 2 1 0 1 1 1 1 2 3 3 3 3 3 3 4
4 8 7 5 4 5 2 5 7 6 5 5 5 5 6 7 8 9 10 9 9 8 8 7 7 5 5 5 4 4 4 3 3 2 2 2 2 2 1 1 1 1 1 2 2 2 3 2 3
6 4 6 7 2 1 5 6 8 2 1 2 3 4 5 7 8 8 8 8 9 8 8 8 8 6 5 5 4 4 4 3 3 2 2 2 2 2 1 1 1 1 1 1 1 2 2 2 2
6 9 6 6 5 3 5 5 5 6 5 3 4 5 5 5 6 7 7 8 8 8 7 7 7 6 5 4 4 4 3 3 3 3 3 2 2 1 1 1 1 1 2 2 1 2 2 2 2
4 5 6 5 5 6 3 7 6 8 8 7 7 6 6 6 7 7 7 6 6 6 7 7 6 5 4 4 4 3 3 2 2 3 3 3 3 2 2 3 2 2 2 2 2 2 2 2 3
4 7 8 5 4 5 4 8 6 6 6 6 7 6 5 5 5 6 6 6 6 7 7 7 6 6 5 5 4 3 3 2 2 3 3 3 3 3 3 3 3 3 3 3 3 3 3 3 4
Wind_Direction
160 154 147 86 54 49 26 357 59 50 46 45 73 84 90 75 91 133 301 136 130 131 161 144 134 129 125 123 120 118 118 120 124 128 133 138 141 142 144 144 146 147 150 152 153 155 156 157 157
150 158 158 46 69 57 1 352 64 65 132 117 71 69 70 60 62 102 92 166 117 129 131 138 136 132 128 126 125 123 121 121 123 127 132 139 142 144 148 149 150 150 153 156 157 158 161 162 163
164 185 91 64 75 125 138 19 109 86 89 73 66 56 65 67 92 129 162 134 101 95 117 144 137 133 132 131 131 129 128 129 130 129 131 137 144 147 153 155 156 155 160 164 165 164 165 168 169
152 64 51 60 53 242 176 165 135 117 56 48 80 64 55 47 122 134 127 124 113 96 128 155 138 135 133 136 139 138 136 135 135 134 133 137 146 151 156 158 160 162 168 172 174 171 170 168 169
69 70 51 40 9 359 107 146 128 100 63 54 79 80 40 13 82 108 123 132 137 151 152 161 150 148 141 142 145 146 142 140 141 138 135 135 139 146 155 158 165 168 173 177 179 176 171 169 165
46 58 65 46 18 27 76 102 97 86 88 82 83 87 49 64 95 118 127 134 141 142 126 153 162 161 154 153 151 146 144 140 141 136 134 139 143 151 159 162 168 170 173 176 179 180 175 172 166
81 75 84 106 61 34 127 109 109 109 99 103 110 95 82 102 134 129 115 104 98 89 63 9 19 165 172 163 160 160 149 143 144 145 144 142 148 159 161 164 167 175 177 179 178 180 176 171 170
125 88 53 8 147 223 142 109 106 111 108 113 106 127 165 187 142 111 89 74 62 52 25 348 1 23 209 167 171 171 158 152 147 148 148 141 145 159 171 172 176 178 174 173 172 169 169 171 171
122 70 192 209 178 181 139 111 92 82 101 90 91 136 151 134 120 105 89 64 40 16 337 347 8 22 40 168 166 169 162 149 143 141 136 128 130 143 161 179 186 180 178 175 170 163 166 171 169
111 137 226 214 179 160 138 126 134 98 91 75 76 89 113 123 127 129 134 151 204 267 282 329 15 22 23 65 84 118 137 130 123 123 122 116 122 137 154 171 187 170 177 177 175 170 168 165 155
158 193 232 182 152 137 129 118 114 124 143 181 153 141 136 134 137 149 166 185 210 241 274 225 188 114 86 67 85 94 105 105 104 117 117 127 109 95 83 72 79 120 146 145 160 155 147 143 144
161 252 209 160 129 130 139 129 113 150 195 157 148 145 148 152 160 175 183 198 199 168 276 244 140 128 135 117 108 110 109 103 102 119 137 131 99 75 71 82 68 75 97 97 111 124 137 137 144
148 295 327 138 121 122 113 114 125 136 111 122 131 140 157 165 170 184 188 182 159 181 229 138 140 150 132 117 124 114 116 120 100 80 176 157 135 122 94 79 81 89 103 112 113 126 137 138 141
157 62 43 80 101 113 115 99 100 136 127 130 143 156 168 173 172 175 181 187 190 200 214 183 153 140 120 124 129 124 120 130 108 112 158 155 148 133 118 92 84 94 110 114 113 117 126 135 140
67 57 42 49 77 105 104 56 174 153 139 145 160 169 170 179 177 190 199 199 201 203 192 174 150 121 122 127 134 129 134 133 129 155 164 148 150 139 127 120 115 128 127 112 104 98 98 113 127
43 54 40 320 112 130 127 235 210 152 149 162 174 178 181 195 199 203 200 200 195 186 180 185 138 125 134 128 129 121 132 140 159 184 151 151 155 148 141 138 135 132 121 115 110 113 111 110 118
30 56 324 305 179 148 154 227 190 159 161 174 183 186 189 198 211 211 201 196 185 180 173 165 126 127 130 120 108 109 114 116 164 190 184 188 162 153 148 141 143 128 114 110 126 115 126 126 123
241 246 280 269 238 154 180 225 182 170 173 185 189 193 196 205 217 211 200 192 178 170 161 154 126 122 116 101 82 68 59 46 122 197 201 176 152 141 140 135 135 129 119 110 109 113 108 126 142
167 156 255 270 223 152 203 230 204 179 181 193 198 204 209 218 220 203 195 178 161 157 160 152 144 149 127 107 110 108 50 351 15 186 174 156 147 140 141 146 140 138 141 153 144 133 127 130 135
154 170 264 319 32 128 146 273 225 190 201 201 202 207 213 216 212 203 194 185 180 183 183 168 178 176 165 160 145 132 115 94 69 38 72 128 152 158 154 159 161 153 145 149 156 156 147 175 152
219 192 204 197 43 55 67 339 267 224 202 205 208 209 212 211 210 207 200 199 191 193 194 192 188 182 178 158 111 82 62 45 41 31 27 25 169 163 159 162 169 165 167 187 199 186 181 206 216
241 217 175 138 96 339 68 297 287 239 222 220 218 211 216 218 209 203 201 201 201 202 192 186 183 177 173 152 140 138 137 160 249 299 349 17 55 172 179 174 175 187 197 205 213 200 199 190 222
212 97 118 108 113 39 21 149 290 258 236 239 225 216 215 214 205 203 203 203 200 190 185 184 173 172 164 157 158 152 163 190 168 71 32 17 16 26 184 185 184 197 213 225 230 216 199 201 211
124 70 56 51 70 1 259 174 279 237 224 235 223 217 212 206 198 197 194 186 187 178 177 174 169 178 168 163 164 166 174 177 155 134 65 351 360 1 332 209 203 208 215 222 226 223 216 217 219
92 89 39 9 13 259 263 200 251 254 235 220 218 217 208 195 189 187 182 182 184 180 180 177 175 181 174 169 175 180 183 181 185 197 198 195 290 305 295 259 235 236 232 225 224 226 233 224 221
161 136 155 192 219 274 304 237 260 273 258 224 207 201 188 188 190 192 191 188 188 185 181 178 179 183 178 178 185 183 181 182 195 200 200 208 230 252 267 243 241 254 248 233 215 225 237 225 228
134 150 156 134 144 294 288 288 303 310 310 198 177 170 185 190 189 193 189 185 187 185 183 181 177 177 178 183 180 184 185 183 193 197 202 218 240 249 243 238 259 281 280 261 226 239 244 226 231
124 137 103 120 148 239 292 282 255 259 244 223 195 194 198 188 185 186 185 186 185 181 175 170 173 179 179 178 186 192 193 197 197 190 199 212 231 249 247 252 255 281 295 287 259 260 262 243 248
106 101 107 117 150 161 239 269 232 223 219 210 214 205 199 194 190 187 186 182 171 163 162 165 170 170 171 178 185 185 189 195 192 200 214 219 229 231 237 244 247 258 272 273 262 264 261 251 261
162 165 150 156 203 176 182 262 276 225 214 203 207 201 195 190 189 182 172 163 161 165 168 171 174 175 179 178 175 185 189 192 204 222 231 227 232 235 232 237 246 254 259 256 246 254 256 250 257
Height
1493 1493 1494 1496 1498 1506 1509 1503 1498 1497 1498 1498 1498 1498 1501 1504 1507 1512 1508 1506 1506 1506 1505 1505 1505 1505 1505 1506 1506 1506 1507 1508 1509 1510 1511 1513 1514 1515 1516 1518 1519 1520 1522 1523 1525 1527 1529 1531 1532
1494 1495 1497 1497 1504 1517 1513 1502 1500 1498 1498 1499 1499 1501 1502 1504 1505 1506 1506 1507 1507 1507 1507 1507 1507 1507 1507 1507 1508 1508 1509 1510 1511 1512 1512 1514 1515 1516 1517 1519 1520 1521 1523 1524 1526 1528 1529 1531 1533
1495 1496 1498 1499 1507 1515 1510 1501 1499 1499 1499 1499 1501 1503 1504 1506 1506 1507 1508 1508 1508 1508 1509 1509 1508 1508 1508 1508 1509 1509 1510 1511 1512 1513 1514 1514 1515 1517 1518 1519 1520 1522 1523 1524 1526 1528 1529 1531 1533
1496 1498 1499 1504 1508 1505 1502 1500 1499 1499 1500 1501 1502 1505 1507 1508 1508 1509 1509 1509 1510 1510 1510 1510 1510 1510 1510 1510 1510 1510 1511 1512 1513 1514 1515 1515 1516 1518 1519 1520 1521 1522 1523 1524 1526 1527 1529 1531 1533
1497 1498 1504 1510 1507 1501 1499 1499 1499 1500 1502 1503 1503 1506 1508 1509 1510 1510 1510 1511 1511 1511 1511 1511 1511 1511 1511 1510 1511 1512 1512 1513 1514 1515 1516 1516 1517 1518 1520 1520 1522 1523 1524 1525 1526 1528 1530 1531 1533
1499 1499 1512 1517 1508 1502 1500 1500 1501 1502 1503 1505 1505 1507 1510 1511 1511 1512 1512 1512 1512 1512 1512 1511 1512 1512 1511 1511 1512 1512 1513 1514 1515 1516 1517 1517 1518 1519 1520 1521 1522 1523 1524 1525 1526 1528 1530 1531 1533
1501 1504 1512 1512 1509 1505 1502 1501 1502 1503 1505 1506 1507 1509 1511 1512 1513 1513 1513 1513 1514 1513 1513 1513 1512 1512 1512 1512 1512 1513 1514 1515 1516 1517 1518 1519 1519 1520 1521 1522 1522 1523 1524 1525 1526 1528 1529 1531 1533
1501 1505 1510 1511 1510 1507 1502 1502 1503 1504 1506 1507 1508 1509 1511 1513 1514 1514 1515 1515 1515 1514 1514 1514 1514 1513 1512 1512 1512 1512 1514 1515 1517 1518 1518 1519 1519 1520 1521 1522 1523 1524 1525 1525 1526 1528 1529 1531 1533
1501 1509 1515 1509 1507 1505 1502 1504 1505 1506 1507 1508 1509 1510 1511 1513 1514 1515 1515 1516 1515 1515 1515 1515 1514 1514 1513 1511 1510 1511 1513 1516 1517 1518 1519 1519 1520 1520 1521 1522 1523 1524 1524 1525 1527 1528 1529 1531 1533
1502 1511 1507 1501 1500 1501 1502 1503 1505 1507 1508 1509 1510 1511 1513 1513 1514 1515 1516 1516 1516 1516 1516 1516 1515 1515 1513 1511 1509 1511 1514 1516 1518 1519 1519 1520 1520 1521 1522 1522 1523 1523 1524 1525 1526 1528 1529 1531 1533
1501 1504 1500 1498 1499 1500 1502 1504 1506 1507 1510 1509 1510 1512 1513 1514 1515 1516 1517 1517 1517 1517 1517 1517 1516 1516 1515 1514 1513 1514 1516 1518 1519 1520 1520 1521 1521 1521 1522 1522 1523 1523 1524 1525 1526 1527 1529 1530 1532
1500 1499 1498 1498 1499 1501 1503 1505 1507 1508 1509 1509 1510 1512 1514 1515 1516 1517 1517 1518 1518 1518 1518 1518 1518 1517 1517 1516 1516 1517 1518 1519 1520 1521 1521 1522 1522 1522 1522 1523 1523 1523 1524 1525 1526 1527 1529 1530 1532
1499 1499 1498 1498 1500 1502 1503 1505 1507 1509 1510 1511 1512 1514 1515 1516 1517 1518 1519 1519 1519 1519 1519 1519 1519 1518 1518 1518 1519 1519 1520 1520 1521 1522 1522 1522 1522 1522 1523 1523 1523 1524 1525 1525 1526 1527 1528 1530 1532
1499 1499 1499 1500 1501 1503 1505 1507 1508 1510 1511 1512 1514 1515 1516 1517 1518 1519 1520 1520 1520 1520 1520 1520 1520 1520 1520 1520 1520 1521 1521 1522 1522 1523 1523 1523 1523 1523 1523 1524 1524 1525 1525 1526 1527 1527 1528 1530 1532
1499 1501 1502 1502 1502 1504 1507 1511 1509 1510 1512 1513 1515 1516 1517 1518 1519 1519 1520 1520 1521 1521 1521 1521 1521 1521 1521 1521 1522 1522 1522 1522 1523 1523 1524 1524 1524 1524 1524 1525 1525 1526 1526 1527 1528 1528 1529 1530 1532
1502 1508 1513 1506 1504 1505 1511 1517 1509 1510 1512 1514 1515 1517 1518 1519 1519 1520 1521 1521 1522 1522 1522 1522 1522 1522 1522 1523 1523 1523 1523 1523 1524 1524 1524 1524 1525 1525 1525 1526 1526 1527 1527 1528 1529 1529 1530 1531 1532
1512 1518 1517 1510 1504 1505 1510 1513 1509 1510 1511 1513 1515 1517 1518 1519 1520 1520 1521 1522 1522 1522 1523 1523 1523 1523 1523 1524 1524 1524 1524 1524 1524 1524 1525 1525 1525 1526 1526 1527 1527 1528 1528 1529 1529 1530 1531 1531 1532
1519 1518 1516 1514 1506 1506 1510 1511 1508 1510 1511 1513 1515 1516 1517 1518 1519 1520 1521 1522 1522 1523 1523 1524 1524 1524 1524 1525 1525 1525 1525 1524 1524 1524 1525 1526 1526 1527 1527 1527 1528 1528 1529 1530 1530 1531 1532 1532 1533
1509 1514 1515 1511 1504 1507 1511 1511 1509 1509 1511 1513 1514 1515 1516 1517 1519 1520 1521 1522 1522 1523 1523 1524 1524 1525 1525 1525 1525 1525 1525 1525 1525 1525 1526 1526 1527 1527 1528 1528 1528 1529 1530 1530 1531 1531 1532 1533 1534
1507 1513 1514 1509 1504 1507 1512 1512 1508 1508 1509 1510 1511 1513 1514 1516 1517 1518 1520 1521 1521 1522 1523 1524 1524 1525 1525 1526 1526 1526 1526 1526 1526 1526 1527 1527 1528 1528 1528 1528 1529 1529 1530 1530 1531 1532 1532 1533 1534
1507 1511 1511 1511 1508 1508 1512 1516 1510 1507 1508 1510 1511 1512 1513 1514 1515 1516 1518 1519 1521 1522 1522 1523 1524 1525 1525 1526 1527 1527 1527 1527 1527 1527 1527 1528 1528 1529 1529 1529 1529 1529 1530 1531 1531 1532 1532 1533 1534
1511 1501 1504 1508 1517 1525 1520 1534 1515 1510 1509 1508 1508 1509 1510 1511 1513 1514 1516 1518 1519 1521 1522 1523 1524 1525 1526 1526 1527 1527 1527 1527 1527 1528 1528 1529 1529 1529 1529 1529 1529 1529 1530 1531 1531 1531 1532 1533 1533
1502 1498 1503 1509 1519 1527 1525 1533 1523 1511 1511 1506 1504 1505 1506 1508 1510 1512 1514 1516 1518 1520 1521 1522 1523 1524 1525 1526 1526 1527 1527 1528 1528 1528 1528 1529 1529 1529 1529 1529 1530 1530 1530 1531 1531 1530 1531 1531 1532
1497 1504 1511 1519 1527 1540 1529 1533 1529 1515 1507 1501 1499 1500 1502 1504 1507 1509 1512 1514 1516 1518 1520 1521 1523 1524 1525 1525 1526 1527 1527 1528 1528 1528 1528 1528 1528 1528 1529 1529 1529 1529 1529 1529 1529 1530 1530 1530 1530
1500 1517 1538 1541 1549 1545 1527 1530 1524 1501 1497 1495 1495 1496 1498 1501 1503 1506 1509 1511 1514 1516 1518 1520 1521 1523 1524 1525 1525 1526 1527 1527 1528 1528 1528 1528 1528 1528 1528 1528 1528 1528 1528 1528 1528 1528 1528 1528 1528
1504 1513 1537 1549 1551 1542 1529 1529 1511 1495 1492 1491 1492 1494 1496 1498 1501 1503 1506 1509 1511 1514 1516 1518 1520 1521 1523 1524 1525 1525 1526 1527 1527 1527 1527 1527 1527 1527 1527 1527 1527 1527 1527 1526 1526 1526 1526 1526 1526
1505 1513 1514 1533 1538 1543 1535 1521 1504 1492 1491 1491 1491 1492 1494 1496 1498 1501 1504 1507 1509 1512 1514 1516 1518 1520 1521 1522 1523 1524 1525 1526 1526 1526 1526 1526 1526 1526 1526 1526 1526 1526 1525 1525 1524 1524 1524 1524 1524
1497 1507 1522 1534 1546 1548 1535 1526 1516 1498 1493 1491 1491 1491 1492 1494 1496 1499 1502 1504 1507 1510 1512 1514 1516 1518 1520 1521 1522 1523 1524 1524 1525 1525 1525 1525 1525 1525 1525 1525 1524 1524 1524 1523 1523 1522 1521 1521 1521
1503 1509 1519 1530 1533 1544 1546 1529 1495 1492 1489 1489 1488 1489 1490 1492 1494 1497 1499 1502 1505 1508 1510 1512 1515 1517 1519 1520 1521 1522 1522 1523 1523 1523 1523 1523 1523 1524 1523 1523 1523 1523 1522 1522 1521 1520 1519 1519 1519
1493 1501 1512 1524 1530 1535 1537 1524 1485 1484 1484 1485 1486 1488 1489 1491 1494 1496 1498 1501 1503 1505 1508 1510 1513 1515 1517 1519 1519 1520 1521 1521 1521 1521 1522 1522 1522 1522 1522 1521 1521 1520 1520 1520 1519 1518 1518 1517 1516